Location: New Frontier Mobile Home Park
(32.8448°N, 116.9675°W)
Time: 21:41:31
(UTC+00:00)

Cosmos 1943 - Pass Details

Date: 14 July 2020
Orbit: 835 x 848 km, 71.0° (Epoch: 05 August)

Event Time Altitude Azimuth Distance (km) Brightness Sun altitude
Exits shadow 07:06:57 43° 338° (NNW) 1,163 4.2 -34.4°
Drops below altitude 10° 07:11:07 10° 10° (N) 2,465 6.3 -34.6°
Sets 07:13:37 0° 16° (NNE) 3,400 7.2 -34.7°
